Regional Weather Roundup
Issued by NWS

Home | Current Version | Previous Version | Text Only | Print | Product List | Glossary Off
Versions: 1 2 3 4 5 6 7 8 9 10 11 12 13 14 15 16 17 18 19 20 21 22 23 24 25 26 27 28 29 30 31 32 33 34 35 36 37 38 39 40 41 42 43 44 45 46 47 48 49 50

783
ASUS43 KOAX 261910
RWRNE

WEATHER ROUNDUP FOR NEBRASKA
NATIONAL WEATHER SERVICE OMAHA NE
200 PM CDT MON JUN 26 2017

NOTES: SATELLITE DATA IS BEING USED TO AUGMENT CLOUD COVER ABOVE
       12000 FEET.
       "FAIR" INDICATES FEW OR NO CLOUDS BELOW 12,000 FEET WITH NO
       SIGNIFICANT WEATHER AND/OR OBSTRUCTIONS TO VISIBILITY.

  * THESE STATIONS DO NOT REPORT WEATHER SUCH AS RAIN...SNOW OR FOG.

NEZ001>004-019>022-054>056-262000-
NEBRASKA PANHANDLE

CITY           SKY/WX    TMP DP  RH WIND       PRES   REMARKS
SCOTTSBLUFF    SUNNY     79  42  26 SE7       30.18F
ALLIANCE       SUNNY     77  37  23 SE8G17    30.20F
CHADRON        SUNNY     77  37  23 S8        30.18F
GORDON         FAIR      74  38  27 E9G17     30.21F
KIMBALL        SUNNY     78  50  37 NE7       30.23F
SIDNEY         SUNNY     82  52  35 VRB5      30.20F
$$

NEZ057>060-069>072-079>082-262000-
SOUTHWEST NEBRASKA

CITY           SKY/WX    TMP DP  RH WIND       PRES   REMARKS
NORTH PLATTE   SUNNY     77  56  48 E13       30.17F
IMPERIAL       SUNNY     83  50  31 S7        30.15F
LEXINGTON      CLOUDY    69  63  81 NE8       30.18F
MCCOOK         SUNNY     82  58  43 VRB3      30.13F
OGALLALA       SUNNY     81  52  36 NE7       30.17F
$$

NEZ005>010-023>029-035>040-094-262000-
NORTH CENTRAL NEBRASKA

CITY           SKY/WX    TMP DP  RH WIND       PRES   REMARKS
VALENTINE      SUNNY     77  36  22 NE13G23   30.21F
AINSWORTH      SUNNY     73  42  32 NE17G28   30.21F
BROKEN BOW     SUNNY     77  46  33 NE14G20   30.17F
O`NEILL        SUNNY     71  44  36 E8G18     30.21F
ORD            SUNNY     77  41  27 N14G23    30.16F
THEDFORD       SUNNY     76  40  27 E14G21    30.21F
$$

NEZ041-046>049-061>064-073>077-083>087-262000-
SOUTH CENTRAL NEBRASKA

CITY           SKY/WX    TMP DP  RH WIND       PRES   REMARKS
GRAND ISLAND   MOSUNNY   76  59  55 NE7       30.15F
AURORA         CLOUDY    75  57  54 N10       30.15F
HASTINGS       CLOUDY    74  59  59 N8        30.15F
HEBRON         CLOUDY    79  59  50 S6        30.13F
HOLDREGE       PTSUNNY   71  57  61 N3        30.17R
KEARNEY *      PTSUNNY   73  61  64 N12       30.15S
YORK           MOSUNNY   75  57  53 N3        30.14F
$$

NEZ011>018-030>034-042>045-262000-
NORTHEAST NEBRASKA

CITY           SKY/WX    TMP DP  RH WIND       PRES   REMARKS
NORFOLK        MOSUNNY   73  48  41 NE14      30.18S
ALBION         MOSUNNY   75  47  36 NE10      30.18S
BLAIR          MOSUNNY   73  55  54 N3        30.16S
FREMONT        PTSUNNY   73  54  51 NE8       30.16S
TEKAMAH        PTSUNNY   74  50  42 NE12      30.16F
WAYNE          MOSUNNY   72  47  41 NE7       30.18F
$$

NEZ050>053-065>068-078-088>093-262000-
SOUTHEAST NEBRASKA

CITY           SKY/WX    TMP DP  RH WIND       PRES   REMARKS
LINCOLN        CLOUDY    70  62  76 S6        30.16F
OMAHA EPPLEY   MOSUNNY   76  56  49 NE9       30.15F
BEATRICE       PTSUNNY   74  60  63 SE6       30.15F
FALLS CITY     PTSUNNY   66  54  65 S12       30.16F
NEBRASKA CITY  CLOUDY    67  61  80 SW6       30.17S
PLATTSMOUTH    CLOUDY    70  57  63 N3        30.17S
$$

NEZ044-045-051>053-067-262000-
OMAHA AREA

CITY           SKY/WX    TMP DP  RH WIND       PRES   REMARKS
OMAHA EPPLEY   MOSUNNY   76  56  49 NE9       30.15F
BLAIR          MOSUNNY   73  55  54 N3        30.16S
FREMONT        PTSUNNY   73  54  51 NE8       30.16S
MILLARD        MOSUNNY   73  57  57 CALM      30.15F
OFFUTT AFB     MOSUNNY   72  57  58 E3        30.15F
PLATTSMOUTH    CLOUDY    70  57  63 N3        30.17S
WAHOO          FAIR      74  55  49 E6        30.15S
$$




USA.gov is the U.S. government's official web portal to all federal, state and local government web resources and services.